ONEWEB-0036 (45144 NORAD) Tracking and Keplerian Element Data

This shows tracking and keplerian element data for the satellite.

Feedback or suggestion? Click here.




ElementValue
Catalog45144
NameONEWEB-0036
Epoch Orbit3916
Epoch Day298.25001157
Epoch Year2020
RAAN86.2279
Inclination87.9434
Eccentricity0.0022579
Argument of Perigee117.7628
Mean Anonmoly115.0203
Mean Motion13.32655454
Decay Rate1.4E-07
L11 45144U 20008P 20298.25001157 .00000014 00000-0 00000+0 0 9994
L22 45144 87.9434 86.2279 0022579 117.7628 115.0203 13.32655454 39165

Live tracking and technical data element details for ONEWEB-0036 (NORAD 45144). ONEWEB-0036 can be tracked NOW for your location showing map with azimuth and elevation plus other details from your city location.

Track the satellite on the map from your city or location and see movement details for azimuth, elevation, latitude, longitude, range, height, and movement on the map or in text.







IsCatalogInMostPopularTable: catalog: 45144, numindb: 52
Update: records affected: 1



GetName: 45144 ONEWEB-0036

Hit Count: updated at: Sat, 24 Oct 2020 23:48:27 GMT